Airfield :
LOGIN :

Register | Disclaimer

   EN    FR    IT 

 










Legend :    VFR   Marginal VFR   IFR   Intensive IFR   Very Intensive IFR
Visi :
Ceiling :
>= 8 km
>= 3000ft
5 to 8 km
1000 to 3000 ft
1500m to 5 km
500 to 1000 ft
800 to 1500m
200 to 500 ft
< 800m
< 200 ft
Symbols :   Thunderstorms  Fog  Heavy snow  Heavy precipitations  Wind > 20 kt
SIGMETs :     Misc.  Thunderstorms  Icing  Turbulence  Mountain Waves  Volcanic Ashes







- Airport Elevation : 794 ft


LKCV - Čáslav Air Base

CURRENT METAR :
  • 251500Z 16011KT 120V190 CAVOK 32/18 Q1022 NOSIG RMK BLU BLU

EXPIRED METARs :
  • 251400Z 16012KT 130V200 CAVOK 32/17 Q1022 NOSIG RMK BLU BLU
  • 251300Z 14011KT 100V190 CAVOK 31/17 Q1023 NOSIG RMK BLU BLU

TAF TAF LKCV
Valid from the 25 at 12:00 until the 26 at 12:00 UTC


251100Z 2512/2612 15008KT CAVOK
TEMPO 2512/2517 15012G22KT
BECMG 2520/2522 18004KT
No reported NOTAMs for that airfield.



MET'MAP, your aeronautical weather chart ! - Copyright ORBIFLY December 2007 - Disclaimer

ORBIFLY MET'MAP TEAM :

Programming & Development : Alexandra Zaïnal
Concept & Development : Baudouin d'Aumeries
Co-Development & Prog : Marc-Olivier Méhu
Technical & hardware support : Manuel Goepfert

Contact : metmap@orbifly.com




SOURCES & CREDITS :

   NOAA